GW6083 Weather Reports


time (UTC)temp
C
wind
direction
speed
KPH
gust
KPH
rain 1hr
cm
rain 24hr
cm
rain mn
cm
humidity
%
barometer
mb
20260507224919 15 250 4.8 4.8 0.00 0.08 0.08 37 1001.9
20260507224414 15 247 3.2 3.2 0.00 0.08 0.08 36 1002.0
20260507223911 15 214 3.2 4.8 0.00 0.08 0.08 37 1001.9
20260507223407 15 294 4.8 4.8 0.00 0.08 0.08 36 1001.9
20260507222905 15 183 1.6 1.6 0.00 0.08 0.08 36 1001.8
20260507222401 15 203 3.2 3.2 0.00 0.08 0.08 36 1001.8
20260507221858 15 283 6.4 9.7 0.00 0.08 0.08 35 1001.8
20260507221355 16 235 6.4 9.7 0.00 0.08 0.08 35 1001.6
20260507220851 16 211 4.8 9.7 0.00 0.08 0.08 34 1001.5
20260507220350 16 201 3.2 3.2 0.00 0.08 0.08 34 1001.7
20260507215846 17 229 4.8 4.8 0.00 0.08 0.08 34 1001.4
20260507215343 17 207 1.6 1.6 0.00 0.08 0.08 35 1001.3
20260507214840 17 303 3.2 4.8 0.00 0.08 0.08 34 1001.7
20260507214338 17 234 4.8 4.8 0.00 0.08 0.08 34 1001.4
20260507213837 17 208 1.6 3.2 0.00 0.08 0.08 34 1001.6
20260507213335 17 241 3.2 4.8 0.00 0.08 0.08 35 1001.2
20260507212831 17 209 3.2 4.8 0.00 0.08 0.08 35 1001.3
20260507212327 16 239 1.6 1.6 0.00 0.08 0.08 36 1001.3
20260507211824 16 319 8.0 9.7 0.00 0.08 0.08 36 1001.5
20260507211321 16 247 4.8 8.0 0.00 0.08 0.08 36 1001.4
20260507210818 17 237 4.8 8.0 0.00 0.08 0.08 33 1001.4
20260507210315 17 221 6.4 8.0 0.00 0.08 0.08 35 1001.3
20260507205811 17 241 3.2 4.8 0.00 0.08 0.08 35 1001.2
20260507205308 17 229 0.0 1.6 0.00 0.08 0.08 35 1001.3
20260507204804 17 333 6.4 8.0 0.00 0.08 0.08 35 1001.2
20260507204302 17 280 3.2 4.8 0.00 0.08 0.08 36 1001.3
20260507203759 18 216 6.4 9.7 0.00 0.08 0.08 33 1001.0
20260507203257 17 214 1.6 3.2 0.00 0.08 0.08 34 1001.3
20260507202753 17 249 3.2 4.8 0.00 0.08 0.08 33 1001.1
20260507202249 17 349 3.2 8.0 0.00 0.08 0.08 34 1001.4
20260507201744 17 248 4.8 4.8 0.00 0.08 0.08 34 1001.2
20260507201241 17 351 4.8 8.0 0.00 0.08 0.08 35 1001.5
20260507200737 18 333 4.8 4.8 0.00 0.08 0.08 35 1001.6
20260507200233 17 240 4.8 4.8 0.00 0.08 0.08 34 1001.5
20260507195730 18 170 6.4 9.7 0.00 0.08 0.08 33 1001.4
20260507195227 18 252 1.6 4.8 0.00 0.08 0.08 33 1001.6
20260507194724 17 234 8.0 11.3 0.00 0.08 0.08 34 1001.5
20260507194220 18 317 6.4 8.0 0.00 0.08 0.08 33 1001.4
20260507193717 17 327 6.4 9.7 0.00 0.08 0.08 34 1001.5
20260507193214 17 226 3.2 4.8 0.00 0.08 0.08 34 1001.5
20260507192710 17 239 3.2 4.8 0.00 0.08 0.08 35 1001.6
20260507192207 17 21 9.7 11.3 0.00 0.08 0.08 36 1001.8
20260507191702 16 255 1.6 3.2 0.00 0.08 0.08 38 1001.8
20260507191200 18 267 3.2 4.8 0.00 0.08 0.08 36 1001.8
20260507190657 18 237 8.0 14.5 0.00 0.08 0.08 35 1001.8
20260507190155 18 27 3.2 4.8 0.00 0.08 0.08 38 1001.8
20260507185653 17 238 4.8 8.0 0.00 0.08 0.08 36 1001.7
20260507185150 18 270 14.5 20.9 0.00 0.08 0.08 36 1001.8
20260507184647 18 300 6.4 8.0 0.00 0.08 0.08 37 1001.9
20260507184145 17 213 4.8 8.0 0.00 0.08 0.08 36 1002.1
20260507183641 17 332 4.8 4.8 0.00 0.08 0.08 38 1001.8
20260507183139 16 218 1.6 1.6 0.00 0.08 0.08 38 1002.0
20260507182635 17 328 4.8 8.0 0.00 0.08 0.08 38 1002.1
20260507182131 17 319 4.8 9.7 0.00 0.08 0.08 38 1002.1
20260507181628 17 214 3.2 4.8 0.00 0.08 0.08 37 1002.2
20260507181124 17 221 4.8 8.0 0.00 0.08 0.08 37 1002.2
20260507180620 18 236 3.2 3.2 0.00 0.08 0.08 38 1002.4
20260507180118 17 212 4.8 8.0 0.00 0.08 0.08 36 1002.2
20260507175613 17 235 4.8 4.8 0.00 0.08 0.08 38 1002.3
20260507175111 17 26 8.0 11.3 0.00 0.08 0.08 37 1002.0
20260507174608 17 278 1.6 3.2 0.00 0.08 0.08 39 1002.0
20260507174106 17 224 4.8 8.0 0.00 0.08 0.08 38 1002.1
20260507173603 17 278 8.0 11.3 0.00 0.08 0.08 37 1002.2
20260507173100 17 217 4.8 4.8 0.00 0.08 0.08 37 1002.2
20260507172555 17 254 4.8 4.8 0.00 0.08 0.08 37 1002.1
20260507172053 17 331 8.0 11.3 0.00 0.08 0.08 37 1002.3
20260507171548 17 253 8.0 9.7 0.00 0.08 0.08 39 1002.2
20260507171046 17 212 3.2 4.8 0.00 0.08 0.08 40 1002.2
20260507170542 17 187 6.4 9.7 0.00 0.08 0.08 37 1002.6
20260507170039 17 214 3.2 4.8 0.00 0.08 0.08 40 1002.4
20260507165535 17 301 9.7 12.9 0.00 0.08 0.08 39 1002.6
20260507165032 17 282 4.8 4.8 0.00 0.08 0.08 43 1002.6
20260507164528 16 231 6.4 11.3 0.00 0.08 0.08 44 1002.4
20260507164025 16 48 3.2 4.8 0.00 0.08 0.08 45 1002.7
20260507163522 16 202 3.2 3.2 0.00 0.08 0.08 45 1002.6
20260507163021 16 255 3.2 4.8 0.00 0.08 0.08 45 1002.8
20260507162520 16 239 4.8 8.0 0.00 0.08 0.08 45 1002.8
20260507162018 16 202 4.8 4.8 0.00 0.08 0.08 50 1002.7
20260507161514 15 217 3.2 8.0 0.00 0.08 0.08 54 1002.9
20260507161011 16 209 1.6 1.6 0.00 0.08 0.08 55 1003.0
20260507160507 16 205 4.8 8.0 0.00 0.08 0.08 55 1002.9
20260507160003 15 184 6.4 9.7 0.00 0.08 0.08 57 1003.0
20260507155459 15 244 3.2 8.0 0.00 0.08 0.08 61 1002.9
20260507154956 14 336 6.4 8.0 0.00 0.08 0.08 60 1003.2
20260507154453 15 182 4.8 8.0 0.00 0.08 0.08 59 1003.3
20260507153950 15 339 4.8 4.8 0.00 0.08 0.08 58 1003.1
20260507153447 15 235 1.6 1.6 0.00 0.08 0.08 59 1003.3
20260507152943 15 250 1.6 3.2 0.00 0.08 0.08 59 1003.4
20260507152439 15 198 4.8 8.0 0.00 0.08 0.08 59 1003.4
20260507151935 14 216 3.2 4.8 0.00 0.08 0.08 59 1003.4
20260507151432 15 250 8.0 11.3 0.00 0.08 0.08 57 1003.6
20260507150929 15 225 4.8 4.8 0.00 0.08 0.08 57 1003.6
20260507150426 15 337 6.4 9.7 0.00 0.08 0.08 57 1003.6
20260507145922 15 206 0.0 1.6 0.00 0.08 0.08 56 1003.6
20260507145418 15 258 1.6 1.6 0.00 0.08 0.08 55 1003.5
20260507144915 15 201 1.6 3.2 0.00 0.08 0.08 55 1003.7
20260507144412 15 233 3.2 4.8 0.00 0.08 0.08 55 1003.6
20260507143908 15 220 3.2 3.2 0.00 0.08 0.08 57 1003.7
20260507143406 15 240 3.2 4.8 0.00 0.08 0.08 54 1004.0
20260507142902 15 227 3.2 4.8 0.00 0.08 0.08 59 1003.5
20260507142358 14 236 1.6 3.2 0.00 0.08 0.08 57 1003.8
20260507141856 14 293 3.2 3.2 0.00 0.08 0.08 55 1003.6
20260507141352 14 274 6.4 9.7 0.00 0.08 0.08 57 1003.5
20260507140848 13 190 1.6 1.6 0.00 0.08 0.08 59 1003.6
20260507140345 14 328 4.8 8.0 0.00 0.08 0.08 58 1003.6
20260507135843 14 190 4.8 11.3 0.00 0.08 0.08 58 1003.7
20260507135340 14 310 4.8 4.8 0.00 0.08 0.08 61 1003.5
20260507134837 13 338 4.8 4.8 0.00 0.08 0.08 62 1003.4
20260507134333 13 3 4.8 4.8 0.00 0.08 0.08 64 1003.4
20260507133829 13 67 1.6 1.6 0.00 0.08 0.08 63 1003.6
20260507133325 13 10 8.0 9.7 0.00 0.08 0.08 61 1003.6
20260507132824 13 301 4.8 4.8 0.00 0.08 0.08 63 1003.9
20260507132319 12 190 4.8 8.0 0.00 0.08 0.08 65 1004.0
20260507131817 12 223 1.6 1.6 0.00 0.08 0.08 65 1004.4
20260507131313 13 222 3.2 4.8 0.00 0.08 0.08 66 1004.3
20260507130810 12 257 1.6 3.2 0.00 0.08 0.08 66 1004.1
20260507130308 12 251 1.6 3.2 0.00 0.08 0.08 66 1004.0
20260507125807 12 197 0.0 1.6 0.00 0.08 0.08 69 1004.0
20260507125306 12 202 0.0 1.6 0.00 0.08 0.08 71 1004.0
20260507124801 12 357 8.0 9.7 0.00 0.08 0.08 70 1004.1
20260507124257 11 260 3.2 3.2 0.00 0.08 0.08 72 1004.3
20260507123755 11 224 3.2 4.8 0.00 0.08 0.08 74 1004.2
20260507123253 11 229 1.6 1.6 0.00 0.08 0.08 75 1004.1
20260507122748 11 86 4.8 8.0 0.00 0.08 0.08 76 1004.3
20260507122244 11 300 1.6 3.2 0.00 0.08 0.08 76 1004.0
20260507121740 11 212 3.2 3.2 0.00 0.08 0.08 76 1004.4
20260507121236 11 224 3.2 3.2 0.00 0.08 0.08 77 1004.4
20260507120732 11 298 3.2 3.2 0.00 0.08 0.08 78 1004.3
20260507120229 11 250 0.0 1.6 0.00 0.08 0.08 79 1004.5
20260507115725 10 221 1.6 3.2 0.00 0.08 0.08 80 1004.3
20260507115221 10 204 3.2 3.2 0.00 0.08 0.08 81 1004.2
20260507114717 10 192 0.0 0.0 0.00 0.08 0.08 83 1004.4
20260507114215 10 213 0.0 0.0 0.00 0.08 0.08 84 1004.2
20260507113712 9 294 3.2 3.2 0.00 0.08 0.08 85 1004.1
20260507113209 9 90 0.0 1.6 0.00 0.08 0.08 85 1003.9
20260507112706 9 182 1.6 3.2 0.00 0.08 0.08 85 1003.9
20260507112203 9 177 1.6 1.6 0.00 0.08 0.08 85 1003.9
20260507111700 9 203 0.0 0.0 0.00 0.08 0.08 84 1004.0
20260507111157 8 239 1.6 1.6 0.00 0.08 0.08 84 1004.2
20260507110653 8 218 1.6 1.6 0.00 0.08 0.08 85 1004.2
20260507110150 8 223 0.0 1.6 0.00 0.08 0.08 84 1003.8
20260507105647 8 223 3.2 4.8 0.00 0.08 0.08 85 1003.8
20260507105142 8 190 0.0 1.6 0.00 0.08 0.08 85 1003.7
20260507104640 8 182 0.0 0.0 0.00 0.08 0.08 85 1003.6
20260507104136 8 159 1.6 3.2 0.00 0.08 0.08 84 1003.6
20260507103632 8 205 0.0 1.6 0.00 0.08 0.08 85 1003.3
20260507103130 8 208 1.6 1.6 0.00 0.08 0.08 85 1003.5
20260507102626 8 218 1.6 1.6 0.00 0.08 0.08 85 1003.4
20260507102122 8 255 0.0 1.6 0.00 0.08 0.08 85 1003.4
20260507101618 8 210 0.0 1.6 0.00 0.08 0.08 85 1003.7
20260507101114 8 214 0.0 0.0 0.00 0.08 0.08 86 1003.2
20260507100612 8 203 3.2 4.8 0.00 0.08 0.08 86 1003.5
20260507100110 8 202 0.0 1.6 0.00 0.08 0.08 86 1003.4
20260507095607 8 211 1.6 1.6 0.00 0.08 0.08 87 1003.6
20260507095104 8 252 1.6 1.6 0.00 0.08 0.08 88 1003.5
20260507094600 8 283 3.2 3.2 0.00 0.08 0.08 88 1003.6
20260507094057 8 269 0.0 1.6 0.00 0.08 0.08 89 1003.3
20260507093554 8 214 0.0 1.6 0.00 0.08 0.08 89 1003.5
20260507093053 8 214 0.0 0.0 0.00 0.08 0.08 89 1003.3
20260507092549 8 209 0.0 0.0 0.00 0.08 0.08 90 1003.7
20260507092046 8 202 0.0 1.6 0.00 0.08 0.08 90 1003.6
20260507091543 8 206 0.0 0.0 0.00 0.08 0.08 91 1003.6
20260507091039 8 217 1.6 1.6 0.00 0.08 0.08 91 1003.8
20260507090534 8 203 0.0 1.6 0.00 0.08 0.08 91 1003.4
20260507090032 8 178 1.6 1.6 0.00 0.08 0.08 91 1003.6
20260507085529 8 210 0.0 1.6 0.00 0.08 0.08 91 1003.3
20260507085025 8 218 1.6 1.6 0.00 0.08 0.08 91 1003.4
20260507084522 8 205 0.0 0.0 0.00 0.08 0.08 90 1003.6
20260507084019 8 230 1.6 1.6 0.13 0.08 0.08 90 1003.3
20260507083515 9 218 0.0 1.6 0.13 0.08 0.08 90 1003.1
20260507083013 9 256 1.6 3.2 0.00 0.05 0.05 90 1003.2
20260507082509 9 225 1.6 3.2 0.00 0.05 0.05 89 1003.1
20260507082005 9 204 0.0 1.6 0.00 0.05 0.05 89 1003.1
20260507081501 9 211 1.6 1.6 0.00 0.05 0.05 89 1003.3
20260507080958 10 206 1.6 1.6 0.00 0.05 0.05 88 1002.9
20260507080454 10 254 1.6 3.2 0.18 0.05 0.05 87 1003.3
20260507075949 10 332 3.2 4.8 0.00 0.03 0.03 86 1003.1
20260507075446 10 202 1.6 1.6 0.00 0.03 0.03 86 1003.3
20260507074943 10 236 3.2 3.2 0.00 0.03 0.03 86 1003.2
20260507074440 10 244 3.2 3.2 0.00 0.03 0.03 87 1003.4
20260507073938 10 208 1.6 1.6 0.00 0.03 0.03 87 1003.2
20260507073434 10 219 0.0 1.6 0.00 0.03 0.03 87 1002.7
20260507072930 10 200 4.8 8.0 0.00 0.03 0.03 87 1002.9
20260507072428 10 234 1.6 1.6 0.00 0.03 0.03 87 1002.9
20260507071926 10 252 4.8 4.8 0.00 0.03 0.03 87 1002.5
20260507071422 10 228 1.6 1.6 0.00 0.03 0.03 88 1002.7
20260507070919 10 213 1.6 1.6 0.00 0.03 0.03 88 1003.0
20260507070416 10 218 1.6 1.6 0.00 0.03 0.03 88 1002.8
20260507065913 10 186 0.0 1.6 0.00 0.03 0.03 89 1002.9
20260507065410 10 218 1.6 1.6 0.00 0.03 0.03 90 1002.5
20260507064907 10 215 1.6 3.2 0.00 0.03 0.03 91 1002.6
20260507064405 10 258 3.2 3.2 0.00 0.03 0.03 93 1002.6
20260507063902 10 197 0.0 1.6 0.00 0.03 0.03 94 1002.8
20260507063359 10 209 1.6 1.6 0.00 0.03 0.03 95 1002.6
20260507062856 10 212 3.2 3.2 0.00 0.03 0.03 96 1002.4
20260507062353 10 217 1.6 1.6 0.00 0.03 0.03 97 1002.3
20260507061851 10 221 3.2 3.2 0.00 0.03 0.03 97 1002.4
20260507061348 10 210 0.0 0.0 0.00 0.03 0.03 97 1002.4
20260507060847 10 212 0.0 1.6 0.00 0.03 0.03 97 1002.3
20260507060343 10 215 0.0 0.0 0.00 0.03 0.03 97 1002.5
20260507055840 10 222 3.2 3.2 0.00 0.03 0.03 97 1002.8
20260507055335 10 218 1.6 3.2 0.00 0.03 0.03 97 1002.6
20260507054832 10 266 3.2 3.2 0.00 0.03 0.03 97 1002.7
20260507054328 10 215 0.0 0.0 0.00 0.03 0.03 98 1002.7
20260507053826 10 217 1.6 3.2 0.00 0.03 0.03 98 1002.9
20260507053323 10 211 1.6 1.6 0.00 0.03 0.03 98 1002.9
20260507052822 10 261 1.6 1.6 0.00 0.03 0.03 98 1002.8
20260507052318 10 195 0.0 0.0 0.00 0.03 0.03 98 1003.1
20260507051816 10 207 0.0 1.6 0.00 0.03 0.03 98 1003.1
20260507051313 10 211 1.6 1.6 0.00 0.03 0.03 98 1003.1
20260507050810 11 206 1.6 3.2 0.00 0.03 0.03 98 1002.8
20260507050306 11 229 1.6 3.2 0.00 0.03 0.03 98 1002.9
20260507045803 11 236 0.0 1.6 0.00 0.03 0.03 98 1002.8
20260507045259 11 204 0.0 0.0 0.00 0.03 0.03 98 1002.8
20260507044757 11 228 1.6 1.6 0.00 0.03 0.03 98 1002.8
20260507044253 11 216 0.0 0.0 0.00 0.03 0.03 98 1002.7
20260507043749 11 194 1.6 3.2 0.00 0.03 0.03 98 1002.9
20260507043246 11 218 0.0 1.6 0.00 0.03 0.03 98 1002.7
20260507042742 11 216 1.6 1.6 0.00 0.03 0.03 98 1002.6
20260507042237 11 266 3.2 3.2 0.00 0.03 0.03 99 1003.0
20260507041736 11 188 0.0 0.0 0.13 0.03 0.03 99 1003.0
20260507041232 11 217 1.6 1.6 0.13 0.03 0.03 99 1002.8
20260507040729 11 211 1.6 1.6 0.00 0.00 0.00 99 1002.9
20260507040225 11 231 4.8 8.0 0.00 0.00 0.00 99 1002.8
20260507035721 12 348 3.2 9.7 0.00 0.84 0.84 99 1002.6
20260507035217 12 333 3.2 3.2 0.00 0.84 0.84 99 1002.5
20260507034714 13 203 0.0 0.0 0.00 0.84 0.84 99 1002.2
20260507034211 13 190 1.6 3.2 0.00 0.84 0.84 99 1002.0
20260507033710 13 217 1.6 1.6 0.00 0.84 0.84 99 1001.9
20260507033207 13 239 3.2 4.8 0.00 0.84 0.84 99 1001.8
20260507032704 14 206 4.8 4.8 0.00 0.84 0.84 99 1001.7
20260507032159 15 202 0.0 1.6 0.00 0.84 0.84 99 1001.6
20260507031657 15 226 1.6 1.6 0.00 0.84 0.84 99 1001.6
20260507031153 15 229 3.2 4.8 0.00 0.84 0.84 99 1001.6
20260507030650 15 217 0.0 1.6 0.00 0.84 0.84 99 1001.7
20260507030148 15 217 0.0 1.6 0.00 0.84 0.84 99 1001.6
20260507025645 15 213 1.6 1.6 0.00 0.84 0.84 99 1001.3
20260507025142 15 213 4.8 4.8 0.00 0.84 0.84 99 1001.5
20260507024640 15 220 1.6 1.6 0.00 0.84 0.84 99 1001.3
20260507024137 15 166 3.2 4.8 0.00 0.84 0.84 99 1001.3
20260507023632 15 243 8.0 12.9 0.00 0.84 0.84 99 1001.3
20260507023130 15 209 1.6 3.2 0.00 0.84 0.84 99 1001.5
20260507022627 15 219 1.6 3.2 0.00 0.84 0.84 99 1001.2
20260507022122 15 217 4.8 4.8 0.00 0.84 0.84 99 1001.1
20260507021619 15 219 3.2 3.2 0.00 0.84 0.84 99 1001.3
20260507021115 15 203 3.2 8.0 0.00 0.84 0.84 99 1001.0
20260507020613 15 209 1.6 1.6 0.00 0.84 0.84 99 1001.3
20260507020109 15 213 8.0 9.7 0.00 0.84 0.84 99 1001.3
20260507015607 15 204 0.0 0.0 0.00 0.84 0.84 99 1001.6
20260507015104 15 208 4.8 8.0 0.00 0.84 0.84 99 1001.7
20260507014601 15 198 1.6 1.6 0.00 0.84 0.84 99 1001.4
20260507014056 15 211 1.6 1.6 0.00 0.84 0.84 99 1001.5
20260507013553 15 203 1.6 1.6 0.00 0.84 0.84 99 1001.3
20260507013051 15 216 0.0 0.0 0.00 0.84 0.84 99 1001.4
20260507012548 15 191 3.2 3.2 0.00 0.84 0.84 99 1001.5
20260507012044 15 215 3.2 4.8 0.00 0.84 0.84 99 1001.4
20260507011542 15 190 1.6 3.2 0.00 0.84 0.84 99 1001.6
20260507011038 15 213 3.2 3.2 0.00 0.84 0.84 99 1001.5
20260507010532 15 221 1.6 1.6 0.00 0.84 0.84 99 1001.7
20260507010029 15 207 0.0 0.0 0.00 0.84 0.84 99 1001.7
20260507005526 15 215 1.6 1.6 0.00 0.84 0.84 99 1001.6
20260507005023 15 222 8.0 11.3 0.00 0.84 0.84 99 1001.7
20260507004520 15 210 6.4 8.0 0.00 0.84 0.84 99 1001.5
20260507004017 15 221 4.8 8.0 0.00 0.84 0.84 99 1001.2
20260507003512 15 223 8.0 9.7 0.00 0.84 0.84 99 1001.5
20260507003008 15 161 4.8 4.8 0.00 0.84 0.84 99 1001.7
20260507002504 15 209 0.0 1.6 0.00 0.84 0.84 99 1001.4
20260507002001 15 223 1.6 1.6 0.00 0.84 0.84 99 1001.5
20260507001457 15 223 8.0 11.3 0.00 0.84 0.84 99 1001.5
20260507000955 15 181 1.6 3.2 0.00 0.84 0.84 99 1001.5
20260507000450 15 221 4.8 4.8 0.00 0.84 0.84 99 1001.2
20260506235946 15 197 0.0 0.0 0.18 0.84 0.84 99 1001.1
20260506235444 15 199 4.8 4.8 0.18 0.84 0.84 99 1001.4
20260506234939 15 181 1.6 1.6 0.00 0.81 0.81 99 1001.2
20260506234437 15 198 0.0 0.0 0.00 0.81 0.81 99 1001.2
20260506233934 15 226 0.0 1.6 0.00 0.81 0.81 99 1001.2
20260506233431 15 212 1.6 1.6 0.13 0.81 0.81 99 1001.4
20260506232927 15 197 0.0 1.6 0.48 0.81 0.81 99 1001.3
20260506232424 15 205 0.0 0.0 0.48 0.79 0.79 99 1001.3
20260506231919 15 176 1.6 1.6 0.13 0.74 0.74 99 1001.4
20260506231417 15 194 1.6 1.6 0.18 0.71 0.71 99 1001.2
20260506230914 15 203 0.0 1.6 0.30 0.71 0.71 99 1001.5
20260506230411 15 197 1.6 3.2 0.13 0.69 0.69 99 1001.7
20260506225907 15 162 1.6 1.6 0.18 0.66 0.66 99 1001.6
20260506225405 15 212 1.6 1.6 0.30 0.66 0.66 99 1001.4